C/2022 U4 ( Bok )

Japanese version
Home page
Updated on March 5, 2023

---------------------------------------------------------------------

* Profile

Discovery Date October 26, 2022
Magnitude 20.2 mag
Discoverer Bok NEO Survey

* Pictures

* Orbital Elements

Epoch 2023 Feb. 25.0 TT = JDT 2460000.5
T 2023 Aug. 3.68348 TT                                  Rudenko
q   2.8983852            (2000.0)            P               Q
z  +0.0002687      Peri.   89.00772     -0.46213852     +0.67320702
 +/-0.0000017      Node   132.93038     -0.68628807     -0.68375111
e   0.9992211      Incl.   52.03626     +0.56163750     -0.28156121
>From 161 observations 2022 Jan. 7-2023 Feb. 20, mean residual 0".5.

* Magnitudes Graph

        m1 = 8.5 + 5 log d + 13.0 log r

---------------------------------------------------------------------

The orbital elements are published on M.P.E.C. 2023-D41.
The magnitudes graphs are made with Comet for Windows.

---------------------------------------------------------------------

Copyright(C) Seiichi Yoshida (comet@aerith.net). All rights reserved.